Location: Fontevrault
(47.1823°N, 0.0493°E)
Time: 19:09:49
(UTC+00:00)

FENGYUN 1C DEB - Visible Passes

Search period start: 24 January 2022 00:00
Search period end: 03 February 2022 00:00
Orbit: 768 x 1010 km, 98.6° (Epoch: 22 January)

Date Brightness Start Highest point End Pass type
(mag) Time Alt. Az. Time Alt. Az. Time Alt. Az.
24 Jan ? 05:07:36 10° ESE 05:11:35 24° ENE 05:15:34 10° N visible
24 Jan ? 06:47:50 10° S 06:52:49 51° W 06:57:47 10° NNW visible
24 Jan ? 19:16:51 60° ESE 19:16:51 60° ESE 19:22:14 10° S visible
24 Jan ? 20:59:39 19° W 20:59:39 19° W 21:02:04 10° WSW visible
25 Jan ? 05:07:02 10° ESE 05:11:01 24° ENE 05:14:59 10° N visible
25 Jan ? 06:47:17 10° S 06:52:15 52° W 06:57:13 10° NNW visible
25 Jan ? 19:15:53 61° E 19:16:02 61° ESE 19:21:42 10° S visible
25 Jan ? 20:58:41 21° W 20:58:41 21° W 21:01:33 10° WSW visible
26 Jan ? 05:06:30 10° ESE 05:10:27 23° ENE 05:14:25 10° N visible
26 Jan ? 06:46:42 10° S 06:51:40 52° W 06:56:39 10° NNW visible
26 Jan ? 19:14:54 57° ENE 19:15:29 61° ESE 19:21:11 10° S visible
26 Jan ? 20:57:41 23° WNW 20:57:41 23° WNW 21:01:03 10° WSW visible
27 Jan ? 05:05:57 10° ESE 05:09:53 23° ENE 05:13:50 10° N visible
27 Jan ? 06:46:09 10° S 06:51:06 52° W 06:56:05 10° NNW visible
27 Jan ? 19:13:51 51° ENE 19:14:55 60° ESE 19:20:39 10° S visible
27 Jan ? 20:56:38 24° WNW 20:56:38 24° WNW 21:00:33 10° WSW visible
28 Jan ? 05:05:24 10° ESE 05:09:19 23° ENE 05:13:16 10° N visible
28 Jan ? 06:45:34 10° S 06:50:31 53° W 06:55:31 10° NNW visible
28 Jan ? 19:12:44 43° NE 19:14:22 60° ESE 19:20:08 10° S visible
28 Jan ? 20:55:30 25° WNW 20:55:32 25° WNW 21:00:03 10° WSW visible
29 Jan ? 05:04:50 10° ESE 05:08:45 23° ENE 05:12:41 10° N visible
29 Jan ? 06:45:00 10° S 06:49:56 53° W 06:54:57 10° NNW visible
29 Jan ? 19:11:31 35° NE 19:13:49 60° ESE 19:19:36 10° S visible
29 Jan ? 20:54:17 24° NW 20:55:00 25° WNW 20:59:33 10° WSW visible
30 Jan ? 05:04:17 10° ESE 05:08:10 23° ENE 05:12:07 10° N visible
30 Jan ? 06:44:24 10° S 06:49:22 54° W 06:54:23 10° NNW visible
30 Jan ? 19:10:09 26° NNE 19:13:15 59° E 19:19:04 10° S visible
30 Jan ? 20:52:55 22° NW 20:54:26 25° WNW 20:59:03 10° WSW visible
31 Jan ? 05:03:43 10° ESE 05:07:36 23° ENE 05:11:32 10° N visible
31 Jan ? 06:43:50 10° S 06:48:47 54° W 06:53:49 10° NNW visible
31 Jan ? 19:08:29 18° NNE 19:12:42 59° E 19:18:33 10° S visible
31 Jan ? 20:51:11 18° NNW 20:53:53 26° WNW 20:58:33 10° WSW visible
01 Feb ? 05:03:09 10° ESE 05:07:02 23° ENE 05:10:58 10° N visible
01 Feb ? 06:43:14 10° S 06:48:12 55° W 06:53:15 10° NNW visible
01 Feb ? 19:06:36 10° NNE 19:12:09 59° ESE 19:18:01 10° S visible
01 Feb ? 20:48:49 10° N 20:53:20 26° WNW 20:58:02 10° WSW visible
02 Feb ? 05:02:35 10° ESE 05:06:27 22° ENE 05:10:23 10° N visible
02 Feb ? 06:42:39 10° S 06:47:37 55° W 06:52:41 10° NNW visible
02 Feb ? 19:06:00 10° NNE 19:11:35 59° E 19:17:29 10° S visible
02 Feb ? 20:48:13 10° N 20:52:46 26° WNW 20:57:32 10° WSW visible
